{"data":{"norad_id":69088,"intl_designator":"2026-104R","name":"QIANFAN-142","alt_names":[],"object_type":"PAYLOAD","status":"ACTIVE","operator":null,"country":"PRC","launch_date":"2026-05-12","launch_site_code":"TAISC","launch_vehicle":null,"mission":null,"orbit_class":"UNKNOWN","rcs_meters":null,"size_class":null,"mass_kg":null,"dimensions":null,"purposes":[],"wikipedia_slug":null,"has_3d_model":false,"image_url":null,"decayed_at":null,"tle_current":{"epoch":"2026-09-20T03:35:18.552192Z","epoch_age_seconds":53591,"freshness":"FRESH","line1":"1 69088U 26104R   26263.14952028  .00000029  00000+0  26310-4 0  9990","line2":"2 69088  88.9896 331.7501 0002496 106.7477 253.3948 13.51019810 17993","mean_motion":13.5101981,"eccentricity":0.0002496,"inclination_deg":88.9896,"raan_deg":331.7501,"arg_perigee_deg":106.7477,"mean_anomaly_deg":253.3948,"bstar":2.631e-5,"rev_number":1799,"period_min":106.58614990997,"perigee_km":1066.6501081342,"apogee_km":1070.367473713,"semimajor_km":7446.6457909236,"source":"CELESTRAK","updated_at":"2026-09-20T09:00:24.674019Z"}}}